This is the latest recevied weather packets stored in our database for station/object N4AR. If no packets are shown the sender has not sent any weather packets the latest 10 day(s).
| Time | Temp. | Humidity | Pressure | Rain* | Wind** | Luminosity | Snow |
|---|---|---|---|---|---|---|---|
| 1777903340 | 20° C | 45% | 1016.3 hPa | 0 mm | - | 529 W/m² | - |
| 1777903038 | 20° C | 46% | 1016.4 hPa | 0 mm | - | 510 W/m² | - |
| 1777902734 | 19.44° C | 45% | 1016.4 hPa | 0 mm | - | 494 W/m² | - |
| 1777902432 | 19.44° C | 47% | 1016.4 hPa | 0 mm | - | 477 W/m² | - |
| 1777902128 | 19.44° C | 48% | 1016.5 hPa | 0 mm | - | 460 W/m² | - |
| 1777901827 | 18.89° C | 49% | 1016.4 hPa | 0 mm | - | 443 W/m² | - |
| 1777901524 | 18.33° C | 51% | 1016.5 hPa | 0 mm | - | 425 W/m² | - |
| 1777901221 | 18.33° C | 51% | 1016.6 hPa | 0 mm | - | 405 W/m² | - |
| 1777900918 | 17.78° C | 52% | 1016.6 hPa | 0 mm | - | 386 W/m² | - |
| 1777900615 | 17.22° C | 54% | 1016.7 hPa | 0 mm | - | 369 W/m² | - |
| 1777900312 | 16.67° C | 56% | 1016.7 hPa | 0 mm | - | 348 W/m² | - |
| 1777900009 | 16.67° C | 58% | 1016.8 hPa | 0 mm | - | 330 W/m² | - |
| 1777899705 | 16.67° C | 58% | 1016.7 hPa | 0 mm | - | 103 W/m² | - |
| 1777899403 | 16.11° C | 58% | 1016.7 hPa | 0 mm | - | 210 W/m² | - |
| 1777899101 | 16.11° C | 60% | 1016.7 hPa | 0 mm | - | 259 W/m² | - |
| 1777898798 | 15.56° C | 60% | 1016.8 hPa | 0 mm | - | 259 W/m² | - |
| 1777898495 | 15° C | 62% | 1016.8 hPa | 0 mm | - | 240 W/m² | - |
| 1777898193 | 14.44° C | 64% | 1016.8 hPa | 0 mm | - | 222 W/m² | - |
| 1777897890 | 14.44° C | 64% | 1017 hPa | 0 mm | - | 211 W/m² | - |
| 1777897586 | 13.89° C | 66% | 1017 hPa | 0 mm | - | 186 W/m² | - |
| 1777897281 | 13.89° C | 67% | 1016.9 hPa | 0 mm | - | 63 W/m² | - |
| 1777896978 | 13.33° C | 66% | 1016.8 hPa | 0 mm | - | 62 W/m² | - |
| 1777896675 | 13.33° C | 67% | 1016.9 hPa | 0 mm | - | 58 W/m² | - |
| 1777896372 | 13.33° C | 68% | 1017 hPa | 0 mm | - | 65 W/m² | - |
| 1777896070 | 12.78° C | 68% | 1017 hPa | 0 mm | - | 47 W/m² | - |
* Rain latest hour (hover to see other rain measurements)
** Current wind speed in m/s (hover to see current wind gust speed)